Bellingham, WA

12:19 PM PDT on May 24, 2017 (GMT -0700)
Bellingham International

Weather History for KBLI - April, 2013

Change the Weather History Date:

Saturday, April 6, 2013

  Actual Average Record
Temperature  
Mean Temperature 49 °F 47 °F  
Max Temperature 55 °F 55 °F 74 °F (2007)
Min Temperature 43 °F 39 °F 29 °F (1967)
Degree Days  
Heating Degree Days 16 18  
Month to date heating degree days 82 108  
Cooling Degree Days 0 0  
Month to date cooling degree days 0 0  
Year to date cooling degree days 0 0  
Moisture  
Dew Point 42 °F    
Average Humidity 78    
Maximum Humidity 96    
Minimum Humidity 59    
Precipitation  
Precipitation 0.30 in 0.10 in 0.68 in (1962)
Month to date precipitation 1.12 0.60  
Year to date precipitation 7.60 11.51  
Sea Level Pressure  
Sea Level Pressure 29.81 in    
Wind  
Wind Speed 9 mph (SSE)    
Max Wind Speed 26 mph    
Max Gust Speed 40 mph    
Visibility 10 miles    
Events Rain    
T = Trace of Precipitation, MM = Missing Value Source: NWS Daily Summary

Daily Weather History Graph

Daily Weather History Graph

Search for Another Location

Airport or City:

Trip Planner

Search our weather history database for the weather conditions in past years. The results will help you decide how hot, cold, wet, or windy it might be!

Date:

Astronomy

Apr. 06, 2013 Rise Set
Actual Time 6:36 AM PDT 7:49 PM PDT
Civil Twilight 6:04 AM PDT 8:21 PM PDT
Nautical Twilight 5:25 AM PDT 9:00 PM PDT
Astronomical Twilight 4:43 AM PDT 9:42 PM PDT
Moon 4:41 AM PDT (4/6) 4:08 PM PDT (4/6)
Length of Visible Light 14h 17m
Length of Day
13h 12m
Waning Crescent, 14% of the Moon is Illuminated
Apr 6
Waning Crescent
Apr 10
New
Apr 18
First Quarter
Apr 25
Full
May 2
Last Quarter

Hourly Weather History & Observations

Time (PDT) Temp. Windchill Dew Point Humidity Pressure Visibility Wind Dir Wind Speed Gust Speed Precip Events Conditions
12:53 AM 51.1 °F - 42.1 °F 71% 29.70 in 10.0 mi SSE 11.5 mph - 0.00 in Rain Light Rain
1:53 AM 50.0 °F - 43.0 °F 77% 29.68 in 10.0 mi SE 13.8 mph 24.2 mph 0.02 in Rain Light Rain
2:53 AM 52.0 °F - 43.0 °F 71% 29.65 in 10.0 mi SE 15.0 mph 32.2 mph 0.00 in   Mostly Cloudy
3:53 AM 54.0 °F - 43.0 °F 66% 29.68 in 10.0 mi SSE 23.0 mph 34.5 mph N/A   Overcast
4:39 AM 51.8 °F - 44.6 °F 76% 29.69 in 10.0 mi SSE 18.4 mph 33.4 mph N/A   Overcast
4:53 AM 52.0 °F - 45.0 °F 77% 29.72 in 10.0 mi SSE 15.0 mph 27.6 mph N/A   Mostly Cloudy
5:53 AM 48.9 °F - 45.0 °F 86% 29.76 in 10.0 mi Variable 6.9 mph - 0.06 in Rain Light Rain
6:06 AM 48.2 °F - 44.6 °F 87% 29.73 in 10.0 mi Variable 6.9 mph - 0.00 in   Overcast
6:53 AM 48.0 °F - 39.9 °F 74% 29.76 in 10.0 mi SSW 4.6 mph - 0.01 in   Overcast
7:53 AM 48.0 °F - 41.0 °F 77% 29.79 in 10.0 mi South 5.8 mph - N/A   Mostly Cloudy
8:53 AM 48.9 °F - 41.0 °F 74% 29.82 in 10.0 mi South 4.6 mph - N/A   Overcast
9:53 AM 48.0 °F - 44.1 °F 86% 29.84 in 10.0 mi SSE 12.7 mph - N/A   Overcast
10:53 AM 48.9 °F - 42.1 °F 77% 29.87 in 10.0 mi South 10.4 mph - N/A   Mostly Cloudy
11:53 AM 50.0 °F - 42.1 °F 74% 29.88 in 10.0 mi SSE 13.8 mph - N/A   Partly Cloudy
12:53 PM 51.1 °F - 42.1 °F 71% 29.89 in 10.0 mi South 8.1 mph - N/A   Clear
1:53 PM 52.0 °F - 39.0 °F 61% 29.90 in 10.0 mi South 8.1 mph - N/A   Clear
2:53 PM 54.0 °F - 41.0 °F 62% 29.89 in 10.0 mi South 10.4 mph - N/A   Scattered Clouds
3:53 PM 53.1 °F - 39.0 °F 59% 29.89 in 10.0 mi SSE 11.5 mph - N/A   Scattered Clouds
4:53 PM 52.0 °F - 41.0 °F 66% 29.89 in 10.0 mi SSE 9.2 mph - N/A   Overcast
5:53 PM 50.0 °F - 43.0 °F 77% 29.89 in 10.0 mi South 6.9 mph - 0.00 in Rain Light Rain
6:53 PM 46.9 °F - 42.1 °F 83% 29.89 in 5.0 mi SSE 9.2 mph - 0.04 in Rain Light Rain
7:53 PM 45.0 °F 42.6 °F 42.1 °F 90% 29.88 in 10.0 mi East 4.6 mph - 0.13 in   Overcast
8:53 PM 44.1 °F 39.5 °F 41.0 °F 89% 29.88 in 10.0 mi ESE 8.1 mph - 0.00 in Rain Light Rain
9:53 PM 43.0 °F 36.8 °F 41.0 °F 93% 29.87 in 10.0 mi ESE 11.5 mph - 0.00 in Rain Light Rain
10:21 PM 42.8 °F 39.3 °F 41.0 °F 93% 29.84 in 7.0 mi East 5.8 mph - 0.03 in Rain Light Rain
10:53 PM 43.0 °F 41.3 °F 42.1 °F 97% 29.85 in 10.0 mi East 3.5 mph - 0.04 in   Overcast
11:53 PM 43.0 °F - 41.0 °F 93% 29.83 in 10.0 mi Calm Calm - N/A   Overcast